Printer-friendly version

IAU Minor Planet Center

Minor Planet Center

MPEC 2008-C31 : 2008 CS1

The following Minor Planet Electronic Circular may be linked-to from your own Web pages, but must not otherwise be redistributed electronically.


Read MPEC 2008-C30 Read MPEC 2008-C32


M.P.E.C. 2008-C31                                Issued 2008 Feb. 4, 19:53 UT

     The Minor Planet Electronic Circulars contain information on unusual
         minor planets and routine data on comets.  They are published
   on behalf of Commission 20 of the International Astronomical Union by the
          Minor Planet Center, Smithsonian Astrophysical Observatory,
                          Cambridge, MA 02138, U.S.A.

             Prepared using the Tamkin Foundation Computer Network

                              MPC@CFA.HARVARD.EDU
          URL http://www.cfa.harvard.edu/iau/mpc.html  ISSN 1523-6714

                                   2008 CS1

Observations:
     K08C01S* C2008 02 03.50178 14 35 51.54 +14 49 27.4          18.8 V EC031703
     K08C01S  C2008 02 03.50733 14 35 56.40 +14 50 09.3          18.8 V EC031703
     K08C01S  C2008 02 03.51289 14 36 01.40 +14 50 51.6          18.8 V EC031703
     K08C01S  C2008 02 03.51848 14 36 06.40 +14 51 33.7          18.4 V EC031703
     K08C01S  C2008 02 03.55162 14 36 35.96 +14 55 41.6          18.6 V EC031703
     K08C01S  C2008 02 03.55214 14 36 36.43 +14 55 46.2          18.6 V EC031703
     K08C01S  C2008 02 03.55267 14 36 36.90 +14 55 50.1          18.9 V EC031703
     K08C01S  C2008 02 03.55322 14 36 37.36 +14 55 54.0          18.7 V EC031703
     K08C01S  C2008 02 04.06027 14 44 24.66 +15 58 32.8                 EC031246
     K08C01S  C2008 02 04.06075 14 44 25.11 +15 58 36.0                 EC031246
     K08C01S  C2008 02 04.06132 14 44 25.77 +15 58 41.1                 EC031246
     K08C01S  C2008 02 04.06183 14 44 26.05 +15 58 44.3                 EC031246
     K08C01S  C2008 02 04.06223 14 44 26.50 +15 58 47.3                 EC031246
     K08C01S  C2008 02 04.06275 14 44 27.03 +15 58 50.9                 EC031246
     K08C01S  C2008 02 04.06318 14 44 27.31 +15 58 54.9                 EC031246

Observer details:
246 Klet Observatory-KLENOT.  Observers M. Tichy, J. Ticha.  Measurer M. Tichy.
    1.06-m KLENOT Telescope + CCD.
703 Catalina Sky Survey.  Observer A. Boattini.  Measurers E. C. Beshore,
    A. Boattini, G. J. Garradd, A. R. Gibbs, A. D. Grauer, R. E. Hill,
    R. A. Kowalski, S. M. Larson, R. H. McNaught.  0.68-m Schmidt + CCD.

Orbital elements:
2008 CS1                                            PHA, Earth MOID = 0.0488 AU
Epoch 2008 Feb. 4.0 TT = JDT 2454500.5                  MPC
M 315.36298              (2000.0)            P               Q
n   0.73060696     Peri.   90.42997     -0.63763328     +0.69270732
a   1.2209002      Node   133.46432     -0.74865213     -0.66031152
e   0.3399705      Incl.   27.66730     +0.18150421     -0.29007803
P   1.35           H   20.2           G   0.15
From 15 observations 2008 Feb. 3-4.

Ephemeris:
2008 CS1                 a,e,i = 1.22, 0.34, 28                  q = 0.8058
Date    TT    R. A. (2000) Decl.     Delta      r     Elong.  Phase     V
2008 02 04    14 43.44   +15 51.6    0.157    1.025   100.0    71.3    18.7
2008 02 05    14 58.91   +17 52.9    0.157    1.019    97.8    73.4    18.8
2008 02 06    15 14.55   +19 48.7    0.158    1.014    95.6    75.5    18.9
2008 02 07    15 30.21   +21 37.5    0.160    1.008    93.3    77.6    18.9
2008 02 08    15 45.79   +23 17.9    0.163    1.003    91.1    79.6    19.0
2008 02 09    16 01.14   +24 49.3    0.166    0.997    88.9    81.5    19.1
2008 02 10    16 16.16   +26 11.1    0.170    0.992    86.8    83.3    19.3
2008 02 11    16 30.75   +27 23.4    0.175    0.986    84.8    85.1    19.4
2008 02 12    16 44.83   +28 26.4    0.180    0.981    82.8    86.7    19.5
2008 02 13    16 58.34   +29 20.6    0.186    0.976    81.0    88.1    19.6
2008 02 14    17 11.25   +30 06.7    0.192    0.970    79.3    89.5    19.7
2008 02 15    17 23.52   +30 45.4    0.198    0.965    77.7    90.7    19.8
2008 02 16    17 35.15   +31 17.4    0.205    0.960    76.2    91.8    19.9
2008 02 17    17 46.16   +31 43.5    0.212    0.955    74.8    92.8    20.0
2008 02 18    17 56.56   +32 04.4    0.220    0.949    73.5    93.7    20.1
2008 02 19    18 06.36   +32 20.7    0.228    0.944    72.3    94.5    20.2
2008 02 20    18 15.61   +32 33.0    0.235    0.939    71.1    95.2    20.3
2008 02 21    18 24.33   +32 41.9    0.244    0.934    70.0    95.8    20.4
2008 02 22    18 32.55   +32 47.8    0.252    0.929    69.0    96.3    20.5
2008 02 23    18 40.31   +32 51.1    0.260    0.924    68.1    96.7    20.6
2008 02 24    18 47.65   +32 52.1    0.269    0.919    67.2    97.1    20.7

Timothy B. Spahr             (C) Copyright 2008 MPC           M.P.E.C. 2008-C31

Read MPEC 2008-C30 Read MPEC 2008-C32


Our Web policy. Index to the CBAT/MPC/ICQ pages.


Valid HTML 4.01!